Other Surface Observations
Issued by NWS Tucson, AZ

Home | Current Version | Previous Version | Text Only | Print | Product List | Glossary On
Versions: 1 2 3 4 5 6 7 8 9 10 11 12 13 14 15 16 17 18 19 20 21 22 23 24 25 26 27 28 29 30 31 32 33 34 35 36 37 38 39 40 41 42 43 44 45 46 47 48 49 50
590
SXUS55 KTWC 141915
OSOTWC

WEATHER ROUNDUP FOR SOUTHEAST ARIZONA
NATIONAL WEATHER SERVICE TUCSON AZ
1215 PM MST SUN FEB 14 2016

AZZ504>506-514-142015-
LOCATION       SKY/WX    TMP DP  RH WIND       PRES   REMARKS
TUCSON         SUNNY     73  22  14 N3        30.07F
DAVIS-MONTHAN  SUNNY     71  23  16 W3        30.04F
CHILDRENS PARK N/A      N/A N/A  20 SE2               PIMA CO DEQ
ALVERNON/22ND  N/A       68 N/A N/A SE3               PIMA CO DEQ
CHERRY/GLENN   N/A       69 N/A N/A SE1               PIMA CO DEQ
TANGERINE      N/A       69 N/A N/A S6                PIMA CO DEQ
CONTL RANCH    N/A       67  26  21 SE5               PIMA CO DEQ
GRANT/1ST      N/A       68  24  19 SE2               PIMA CO DEQ
CRAYCROFT/22ND N/A       67  25  20 N/A               PIMA CO DEQ
GOLFLINKS/KOLB N/A       68  24  19 NW0               PIMA CO DEQ
AJO/12TH       N/A       68  23  18 S3                PIMA CO DEQ
SAGUARO EAST   N/A       22 -13  19 W3                PIMA CO DEQ
FAIRGROUNDS    N/A       70 N/A N/A N/A               PIMA CO DEQ
SAGUARO        N/A       74  26  17 S4                *SABINO CYN
SAN CARLOS     N/A       67  30  25 S3                *SAN CARLOS
GREEN VALLEY   N/A       70  20  15 S4                PIMA CO DEQ
HORSE CAMP CYN N/A       66  28  24 SW4               *ARAVAIPA CYN
RINCON MTNS    N/A       57  11  16 N3G10             *NR MANNING CAMP
$$

AZZ509>511-142015-
LOCATION       SKY/WX    TMP DP  RH WIND       PRES   REMARKS
SAFFORD        SUNNY     66  21  18 W7        30.05F
STRAY HORSE    N/A       58   2  10 S4G14             *
TRAIL CABIN    N/A       65   7  10 NW5G10            *N OF GRANVILLE
BLACK HILLS    N/A       67  26  21 W3                *N OF FT THOMAS
DRY LAKE       N/A       59   8  13 N4G10             *NATANES MTNS
NOON CREEK     N/A       67  23  19 NE4               *PINALENO MTNS
COLUMBINE      N/A       53   7  15 N3G11             *PINALENO MTNS
GUTHRIE        N/A       64  14  14 SE2               *SW OF GUTHRIE
$$

AZZ502-503-513-142015-
LOCATION       SKY/WX    TMP DP  RH WIND       PRES   REMARKS
NOGALES        SUNNY     73  13  10 NW5       30.09F
SELLS          N/A       75  26  16 W5                *
SASABE         N/A       75  21  13 NE6G11            *ALTAR VLY
HOPKINS        N/A       65  13  13 W7G18             *SANTA RITA MTNS
CARR CYN       N/A       72  15  11 N4                *W OF HEREFORD
$$

AZZ507-508-512-142015-
LOCATION       SKY/WX    TMP DP  RH WIND       PRES   REMARKS
SIERRA VISTA   SUNNY     70   8   8 VRB3      30.13F
DOUGLAS        SUNNY     72  10   9 N10       30.10F
EMPIRE MTNS    N/A       73  13  10 NW8G16            *LAS CIENEGAS NCA
MULESHOE RANCH N/A       66  21  18 NW8G13            *PRESERVE
HEADQUARTERS   N/A       71   9   9 N3G10             *CHIRICAHUA MTNS
$$

.............................NOTES.............................
THIS IS AN AUTOMATED COLLECTIVE WITH MINIMAL QUALITY CONTROL.
PIMA CO DEQ SITES HAVE NONSTANDARD WIND SENSOR HEIGHTS.
PIMA CO DEQ SITES DO NOT REPORT WIND GUSTS.
* INDICATES WIND SENSORS LOCATED AT 20 FEET INSTEAD OF 33 FEET.
..............................KEY..............................
SKY/WX - SKY CONDITION/WEATHER
TMP    - TEMPERATURE IN FAHRENHEIT
DP     - DEWPOINT IN FAHRENHEIT
RH     - RELATIVE HUMIDITY IN PERCENT
WIND   - DIRECTION AND SPEED IN MILES PER HOUR (MPH)
VRB    - VARIABLE WIND DIRECTION
PRES   - MEAN SEA LEVEL PRESSURE IN INCHES OF MERCURY
         F - FALLING PRESSURE   R - RISING PRESSURE
         S - STEADY PRESSURE
VSB    - VISIBILITY IN MILES
HX     - HEAT INDEX IN FAHRENHEIT
WCI    - WIND CHILL INDEX IN FAHRENHEIT
N/A    - NOT AVAILABLE
AFB    - AIR FORCE BASE
         DAVIS-MONTHAN IS DAVIS-MONTHAN AIR FORCE BASE
CYN    - CANYON
MTNS   - MOUNTAINS
NCA    - NATIONAL CONSERVATION AREA
NR     - NEAR
VLY    - VALLEY
CONTL  - CONTINENTAL
PIMA CO DEQ - PIMA COUNTY DEPT OF ENVIRONMENTAL QUALITY



USA.gov is the U.S. government's official web portal to all federal, state and local government web resources and services.